Location: Blanot
(47.1713°N, 4.2340°E)
Time: 10:49:55
(UTC+00:00)

CZ-2D R/B - Pass Details

Date: 14 July 2020
Orbit: 792 x 845 km, 98.7° (Epoch: 05 August)

Event Time Altitude Azimuth Distance (km) Brightness Sun altitude
Rises 00:39:05 0° 22° (NNE) 3,348 6.8 -20.3°
Reaches altitude 10° 00:41:39 10° 31° (NNE) 2,420 5.6 -20.2°
Maximum altitude 00:46:30 34° 96° (E) 1,326 3.3 -20.0°
Enters shadow 00:49:08 22° 144° (SE) 1,723 3.5 -19.9°
